| time (UTC) | temp C | wind direction | speed KPH | gust KPH | rain 1hr cm | rain 24hr cm | rain mn cm | humidity % | barometer mb |
| 20260505124407 | 22 | 157 | 0.0 | 1.6 | 0.00 | 0.00 | 0.00 | 90 | 1004.9 |
| 20260505123407 | 22 | 157 | 0.0 | 4.8 | 0.00 | 0.00 | 0.00 | 90 | 1004.9 |
| 20260505122407 | 21 | 157 | 0.0 | 3.2 | 0.00 | 0.00 | 0.00 | 89 | 1004.8 |
| 20260505121411 | 21 | 157 | 0.0 | 3.2 | 0.00 | 0.00 | 0.00 | 89 | 1004.5 |
| 20260505120407 | 21 | 157 | 0.0 | 4.8 | 0.00 | 0.00 | 0.00 | 89 | 1004.5 |
| 20260505115407 | 21 | 157 | 1.6 | 8.0 | 0.00 | 0.00 | 0.00 | 89 | 1004.5 |
| 20260505114407 | 21 | 157 | 0.0 | 1.6 | 0.00 | 0.00 | 0.00 | 89 | 1004.6 |
| 20260505113407 | 21 | 157 | 0.0 | 3.2 | 0.00 | 0.00 | 0.00 | 89 | 1004.6 |
| 20260505112407 | 21 | 157 | 0.0 | 4.8 | 0.00 | 0.00 | 0.00 | 88 | 1004.5 |
| 20260505111407 | 21 | 157 | 0.0 | 8.0 | 0.00 | 0.00 | 0.00 | 88 | 1004.3 |
| 20260505110407 | 21 | 159 | 0.0 | 6.4 | 0.00 | 0.00 | 0.00 | 88 | 1004.3 |
| 20260505101407 | 21 | 171 | 0.0 | 8.0 | 0.00 | 0.00 | 0.00 | 87 | 1004.7 |
| 20260505100408 | 21 | 171 | 1.6 | 4.8 | 0.00 | 0.00 | 0.00 | 87 | 1004.7 |
| 20260505095407 | 21 | 171 | 0.0 | 4.8 | 0.00 | 0.00 | 0.00 | 87 | 1004.6 |
| 20260505094407 | 21 | 171 | 0.0 | 3.2 | 0.00 | 0.00 | 0.00 | 86 | 1004.6 |
| 20260505093410 | 21 | 171 | 1.6 | 8.0 | 0.00 | 0.00 | 0.00 | 86 | 1004.6 |
| 20260505092407 | 21 | 171 | 0.0 | 3.2 | 0.00 | 0.00 | 0.00 | 86 | 1004.8 |
| 20260505091407 | 21 | 171 | 0.0 | 4.8 | 0.00 | 0.00 | 0.00 | 86 | 1005.0 |
| 20260505090407 | 21 | 171 | 3.2 | 4.8 | 0.00 | 0.00 | 0.00 | 86 | 1005.0 |
| 20260505085407 | 21 | 171 | 0.0 | 3.2 | 0.00 | 0.00 | 0.00 | 85 | 1005.0 |
| 20260505084407 | 21 | 171 | 0.0 | 4.8 | 0.00 | 0.00 | 0.00 | 85 | 1005.1 |
| 20260505083407 | 21 | 171 | 0.0 | 4.8 | 0.00 | 0.00 | 0.00 | 85 | 1005.1 |
| 20260505082410 | 21 | 171 | 0.0 | 3.2 | 0.00 | 0.00 | 0.00 | 85 | 1005.2 |
| 20260505081410 | 21 | 171 | 0.0 | 8.0 | 0.00 | 0.00 | 0.00 | 84 | 1005.3 |
| 20260505080410 | 21 | 172 | 0.0 | 4.8 | 0.00 | 0.00 | 0.00 | 84 | 1005.3 |
| 20260505075407 | 21 | 172 | 0.0 | 4.8 | 0.00 | 0.00 | 0.00 | 84 | 1005.4 |
| 20260505074410 | 21 | 172 | 0.0 | 4.8 | 0.00 | 0.00 | 0.00 | 84 | 1005.4 |
| 20260505073407 | 21 | 171 | 0.0 | 6.4 | 0.00 | 0.00 | 0.00 | 83 | 1005.4 |
| 20260505072407 | 21 | 150 | 0.0 | 14.5 | 0.00 | 0.00 | 0.00 | 83 | 1005.5 |
| 20260505071407 | 21 | 150 | 0.0 | 6.4 | 0.00 | 0.00 | 0.00 | 82 | 1005.6 |
| 20260505070407 | 21 | 151 | 3.2 | 4.8 | 0.00 | 0.00 | 0.00 | 82 | 1005.6 |
| 20260505065407 | 21 | 151 | 3.2 | 8.0 | 0.00 | 0.00 | 0.00 | 82 | 1006.0 |
| 20260505064407 | 21 | 151 | 1.6 | 9.7 | 0.00 | 0.00 | 0.00 | 82 | 1006.1 |
| 20260505063407 | 21 | 151 | 3.2 | 6.4 | 0.00 | 0.00 | 0.00 | 82 | 1006.1 |
| 20260505062407 | 21 | 151 | 1.6 | 4.8 | 0.00 | 0.00 | 0.00 | 81 | 1006.2 |
| 20260505061407 | 21 | 151 | 0.0 | 6.4 | 0.00 | 0.00 | 0.00 | 81 | 1006.4 |
| 20260505060407 | 21 | 151 | 1.6 | 9.7 | 0.00 | 0.00 | 0.00 | 80 | 1006.4 |
| 20260505055406 | 21 | 152 | 1.6 | 8.0 | 0.00 | 0.00 | 0.00 | 80 | 1006.2 |
| 20260505054406 | 21 | 151 | 1.6 | 9.7 | 0.00 | 0.00 | 0.00 | 79 | 1006.6 |
| 20260505053407 | 21 | 151 | 1.6 | 6.4 | 0.00 | 0.00 | 0.00 | 79 | 1006.6 |
| 20260505052406 | 21 | 151 | 0.0 | 4.8 | 0.00 | 0.00 | 0.00 | 79 | 1006.9 |
| 20260505051407 | 21 | 151 | 0.0 | 6.4 | 0.00 | 0.00 | 0.00 | 79 | 1006.9 |
| 20260505050406 | 21 | 151 | 3.2 | 8.0 | 0.00 | 0.00 | 0.00 | 78 | 1006.9 |
| 20260505041410 | 22 | 154 | 3.2 | 4.8 | 0.00 | 0.00 | 0.00 | 76 | 1007.1 |
| 20260505040406 | 22 | 154 | 0.0 | 9.7 | 0.00 | 0.00 | 0.00 | 75 | 1007.1 |
| 20260505035407 | 22 | 154 | 1.6 | 8.0 | 0.00 | 0.00 | 0.00 | 75 | 1007.1 |
| 20260505034406 | 22 | 150 | 1.6 | 9.7 | 0.00 | 0.00 | 0.00 | 75 | 1007.1 |
| 20260505033406 | 22 | 153 | 0.0 | 6.4 | 0.00 | 0.00 | 0.00 | 74 | 1007.1 |
| 20260505032409 | 22 | 153 | 1.6 | 8.0 | 0.00 | 0.00 | 0.00 | 74 | 1007.2 |
| 20260505031407 | 22 | 149 | 1.6 | 9.7 | 0.00 | 0.00 | 0.00 | 73 | 1007.1 |
| 20260505030406 | 22 | 161 | 3.2 | 14.5 | 0.00 | 0.00 | 0.00 | 72 | 1007.1 |
| 20260505025407 | 23 | 138 | 0.0 | 11.3 | 0.00 | 0.00 | 0.00 | 72 | 1007.2 |
| 20260505024407 | 23 | 136 | 4.8 | 14.5 | 0.00 | 0.00 | 0.00 | 72 | 1007.2 |
| 20260505023406 | 23 | 136 | 6.4 | 6.4 | 0.00 | 0.00 | 0.00 | 71 | 1007.2 |
| 20260505022406 | 23 | 134 | 0.0 | 11.3 | 0.00 | 0.00 | 0.00 | 71 | 1006.9 |
| 20260505021406 | 23 | 188 | 1.6 | 6.4 | 0.00 | 0.00 | 0.00 | 70 | 1006.7 |
| 20260505020406 | 23 | 150 | 0.0 | 11.3 | 0.00 | 0.00 | 0.00 | 69 | 1006.7 |
| 20260505015407 | 23 | 148 | 3.2 | 11.3 | 0.00 | 0.00 | 0.00 | 69 | 1006.8 |
| 20260505014409 | 23 | 148 | 4.8 | 6.4 | 0.00 | 0.00 | 0.00 | 69 | 1006.6 |
| 20260505013406 | 23 | 153 | 1.6 | 8.0 | 0.00 | 0.00 | 0.00 | 68 | 1006.6 |
| 20260505012406 | 24 | 148 | 1.6 | 14.5 | 0.00 | 0.00 | 0.00 | 67 | 1006.6 |
| 20260505011406 | 24 | 144 | 3.2 | 16.1 | 0.00 | 0.00 | 0.00 | 66 | 1006.6 |
| 20260505010409 | 25 | 142 | 4.8 | 8.0 | 0.00 | 0.00 | 0.00 | 65 | 1006.6 |
| 20260505005406 | 25 | 143 | 17.7 | 17.7 | 0.00 | 0.00 | 0.00 | 65 | 1006.6 |
| 20260505004406 | 25 | 157 | 3.2 | 9.7 | 0.00 | 0.00 | 0.00 | 64 | 1006.5 |
| 20260505003406 | 25 | 163 | 3.2 | 9.7 | 0.00 | 0.00 | 0.00 | 64 | 1006.5 |
| 20260505002406 | 25 | 148 | 1.6 | 11.3 | 0.00 | 0.00 | 0.00 | 64 | 1006.3 |
| 20260505001407 | 25 | 143 | 6.4 | 12.9 | 0.00 | 0.00 | 0.00 | 63 | 1006.5 |
| 20260505000407 | 26 | 144 | 4.8 | 8.0 | 0.00 | 0.00 | 0.00 | 62 | 1006.5 |
| 20260504235407 | 26 | 149 | 1.6 | 11.3 | 0.00 | 0.00 | 0.00 | 62 | 1006.6 |
| 20260504234406 | 26 | 157 | 4.8 | 14.5 | 0.00 | 0.00 | 0.00 | 62 | 1006.7 |
| 20260504233409 | 26 | 173 | 3.2 | 11.3 | 0.00 | 0.00 | 0.00 | 61 | 1006.7 |
| 20260504232407 | 26 | 155 | 6.4 | 14.5 | 0.00 | 0.00 | 0.00 | 60 | 1007.0 |
| 20260504231406 | 26 | 152 | 6.4 | 9.7 | 0.00 | 0.00 | 0.00 | 59 | 1007.2 |
| 20260504230406 | 26 | 138 | 4.8 | 11.3 | 0.00 | 0.00 | 0.00 | 58 | 1007.2 |
| 20260504225406 | 26 | 143 | 8.0 | 14.5 | 0.00 | 0.00 | 0.00 | 57 | 1007.2 |
| 20260504224407 | 26 | 207 | 4.8 | 12.9 | 0.00 | 0.00 | 0.00 | 57 | 1007.2 |
| 20260504223406 | 26 | 149 | 1.6 | 9.7 | 0.00 | 0.00 | 0.00 | 57 | 1007.2 |
| 20260504222406 | 26 | 148 | 1.6 | 11.3 | 0.00 | 0.00 | 0.00 | 56 | 1007.3 |
| 20260504221406 | 26 | 152 | 6.4 | 16.1 | 0.00 | 0.00 | 0.00 | 56 | 1007.7 |
| 20260504220406 | 26 | 165 | 3.2 | 14.5 | 0.00 | 0.00 | 0.00 | 55 | 1007.7 |
| 20260504215407 | 27 | 219 | 3.2 | 8.0 | 0.00 | 0.00 | 0.00 | 55 | 1007.7 |
| 20260504214410 | 27 | 207 | 4.8 | 11.3 | 0.00 | 0.00 | 0.00 | 54 | 1007.8 |
| 20260504213406 | 27 | 159 | 3.2 | 9.7 | 0.00 | 0.00 | 0.00 | 52 | 1007.8 |
| 20260504212406 | 27 | 149 | 14.5 | 14.5 | 0.00 | 0.00 | 0.00 | 52 | 1008.2 |
| 20260504211409 | 28 | 144 | 3.2 | 9.7 | 0.00 | 0.00 | 0.00 | 51 | 1008.3 |
| 20260504210407 | 28 | 180 | 6.4 | 9.7 | 0.00 | 0.00 | 0.00 | 50 | 1008.3 |
| 20260504205407 | 28 | 189 | 4.8 | 11.3 | 0.00 | 0.00 | 0.00 | 51 | 1008.5 |
| 20260504204409 | 28 | 165 | 3.2 | 9.7 | 0.00 | 0.00 | 0.00 | 49 | 1008.4 |
| 20260504203406 | 28 | 158 | 9.7 | 14.5 | 0.00 | 0.00 | 0.00 | 49 | 1008.4 |
| 20260504202406 | 28 | 132 | 6.4 | 16.1 | 0.00 | 0.00 | 0.00 | 49 | 1008.8 |
| 20260504201406 | 28 | 165 | 6.4 | 9.7 | 0.00 | 0.00 | 0.00 | 49 | 1009.2 |
| 20260504200406 | 28 | 132 | 1.6 | 14.5 | 0.00 | 0.00 | 0.00 | 49 | 1009.2 |
| 20260504195406 | 28 | 165 | 3.2 | 9.7 | 0.00 | 0.00 | 0.00 | 49 | 1009.3 |
| 20260504194406 | 28 | 190 | 3.2 | 8.0 | 0.00 | 0.00 | 0.00 | 49 | 1009.4 |
| 20260504193406 | 28 | 134 | 1.6 | 8.0 | 0.00 | 0.00 | 0.00 | 49 | 1009.4 |
| 20260504192406 | 28 | 167 | 1.6 | 8.0 | 0.00 | 0.00 | 0.00 | 49 | 1009.7 |
| 20260504191406 | 28 | 199 | 3.2 | 11.3 | 0.00 | 0.00 | 0.00 | 48 | 1009.8 |
| 20260504190406 | 28 | 188 | 3.2 | 8.0 | 0.00 | 0.00 | 0.00 | 48 | 1009.8 |
| 20260504185406 | 28 | 196 | 9.7 | 11.3 | 0.00 | 0.00 | 0.00 | 48 | 1009.9 |
| 20260504184406 | 28 | 191 | 8.0 | 11.3 | 0.00 | 0.00 | 0.00 | 50 | 1010.1 |
| 20260504183406 | 27 | 178 | 4.8 | 11.3 | 0.00 | 0.00 | 0.00 | 50 | 1010.1 |
| 20260504182406 | 27 | 226 | 3.2 | 11.3 | 0.00 | 0.00 | 0.00 | 50 | 1010.3 |
| 20260504181409 | 27 | 140 | 3.2 | 8.0 | 0.00 | 0.00 | 0.00 | 50 | 1010.3 |
| 20260504180406 | 27 | 182 | 1.6 | 11.3 | 0.00 | 0.00 | 0.00 | 50 | 1010.3 |
| 20260504175407 | 27 | 147 | 1.6 | 14.5 | 0.00 | 0.00 | 0.00 | 51 | 1010.9 |
| 20260504174406 | 27 | 205 | 3.2 | 11.3 | 0.00 | 0.00 | 0.00 | 51 | 1010.9 |
| 20260504173409 | 27 | 142 | 3.2 | 8.0 | 0.00 | 0.00 | 0.00 | 54 | 1010.8 |
| 20260504172406 | 26 | 159 | 1.6 | 16.1 | 0.00 | 0.00 | 0.00 | 54 | 1011.1 |
| 20260504171406 | 26 | 185 | 4.8 | 9.7 | 0.00 | 0.00 | 0.00 | 53 | 1011.4 |
| 20260504170407 | 26 | 205 | 4.8 | 11.3 | 0.00 | 0.00 | 0.00 | 53 | 1011.4 |
| 20260504160406 | 25 | 134 | 8.0 | 14.5 | 0.00 | 0.00 | 0.00 | 60 | 1011.9 |
| 20260504150406 | 22 | 192 | 4.8 | 14.5 | 0.00 | 0.00 | 0.00 | 65 | 1011.9 |
| 20260504140409 | 19 | 151 | 3.2 | 4.8 | 0.00 | 0.00 | 0.00 | 73 | 1012.0 |